Tracking 19720 objects as of 27-Jun-2019
HD Live streaming from Space Station
objects crossing your sky now

SL-3 DEB

Track SL-3 DEB now!
10-day predictions


NORAD ID: 9664
Int'l Code: 1977-002D
Perigee: 887.9 km
Apogee: 900.7 km
Inclination: 81.3 °
Period: 102.7 minutes
Semi major axis: 7265 km
RCS: 0.0154 m2 (small)
Launch date: January 6, 1977
Source: Commonwealth of Independent States (former USSR) (CIS)
Launch site: PLESETSK MISSILE AND SPACE COMPLEX (PKMTR)

Note: This is SATELLITE DEBRIS
aabbcc
Your satellite tracking list
Your tracking list is empty




NASA's NSSDC Master Catalog

Two Line Element Set (TLE):
1  9664U 77002D   19176.07939479 -.00000003  00000-0 -99345-5 0  9993
2  9664  81.2670  45.8855 0008825 354.7859   5.3214 14.01915638171709
Source of the keplerian elements: AFSPC